TimeCDT,TemperatureF,Dew PointF,Humidity,Sea Level PressureIn,VisibilityMPH,Wind Direction,Wind SpeedMPH,Gust SpeedMPH,PrecipitationIn,Events,Conditions,WindDirDegrees,DateUTC
12:11 AM,41.0,35.6,81,29.59,10.0,WSW,6.9,-,N/A,,Scattered Clouds,250,2012-10-09 05:11:00
12:31 AM,41.0,35.6,81,29.60,10.0,WSW,8.1,-,N/A,,Clear,240,2012-10-09 05:31:00
12:52 AM,39.2,33.8,81,29.60,10.0,WSW,4.6,-,N/A,,Scattered Clouds,240,2012-10-09 05:52:00
1:11 AM,37.4,33.8,87,29.60,10.0,SW,3.5,-,N/A,,Scattered Clouds,220,2012-10-09 06:11:00
1:31 AM,37.4,33.8,87,29.61,10.0,SW,4.6,-,N/A,,Scattered Clouds,220,2012-10-09 06:31:00
1:52 AM,37.4,32.0,81,29.61,10.0,SW,3.5,-,N/A,,Mostly Cloudy,220,2012-10-09 06:52:00
2:11 AM,37.4,32.0,81,29.61,10.0,SW,4.6,-,N/A,,Overcast,220,2012-10-09 07:11:00
2:31 AM,37.4,32.0,81,29.61,10.0,SW,4.6,-,N/A,,Mostly Cloudy,230,2012-10-09 07:31:00
3:11 AM,35.6,30.2,81,29.61,10.0,SSW,3.5,-,N/A,,Scattered Clouds,200,2012-10-09 08:11:00
3:32 AM,35.6,30.2,81,29.60,10.0,SSW,3.5,-,N/A,,Clear,210,2012-10-09 08:32:00
3:51 AM,35.6,30.2,81,29.61,10.0,SW,4.6,-,N/A,,Clear,220,2012-10-09 08:51:00
4:11 AM,35.6,30.2,81,29.61,10.0,SW,4.6,-,N/A,,Clear,220,2012-10-09 09:11:00
4:32 AM,35.6,30.2,81,29.61,10.0,SSW,3.5,-,N/A,,Clear,200,2012-10-09 09:32:00
4:51 AM,33.8,30.2,87,29.61,7.0,SSW,3.5,-,N/A,,Clear,200,2012-10-09 09:51:00
5:11 AM,35.6,30.2,81,29.61,10.0,SW,3.5,-,N/A,,Clear,220,2012-10-09 10:11:00
5:32 AM,35.6,30.2,81,29.62,10.0,Calm,Calm,-,N/A,,Clear,0,2012-10-09 10:32:00
5:51 AM,33.8,30.2,87,29.62,7.0,SSW,3.5,-,N/A,,Mostly Cloudy,210,2012-10-09 10:51:00
6:11 AM,35.6,30.2,81,29.62,10.0,Calm,Calm,-,N/A,,Overcast,0,2012-10-09 11:11:00
6:32 AM,35.6,30.2,81,29.62,10.0,Calm,Calm,-,N/A,,Overcast,0,2012-10-09 11:32:00
6:51 AM,37.4,32.0,81,29.62,10.0,WSW,5.8,-,N/A,,Mostly Cloudy,250,2012-10-09 11:51:00
7:11 AM,39.2,33.8,81,29.62,10.0,SW,5.8,-,N/A,,Mostly Cloudy,230,2012-10-09 12:11:00
7:32 AM,37.4,32.0,81,29.62,10.0,South,3.5,-,N/A,,Mostly Cloudy,190,2012-10-09 12:32:00
7:51 AM,35.6,30.2,81,29.63,10.0,Calm,Calm,-,N/A,,Mostly Cloudy,0,2012-10-09 12:51:00
8:11 AM,37.4,32.0,81,29.63,10.0,SW,3.5,-,N/A,,Mostly Cloudy,230,2012-10-09 13:11:00
8:32 AM,39.2,33.8,81,29.62,10.0,WSW,5.8,-,N/A,,Overcast,240,2012-10-09 13:32:00
8:51 AM,39.2,33.8,81,29.62,10.0,WSW,8.1,-,N/A,,Mostly Cloudy,250,2012-10-09 13:51:00
9:11 AM,41.0,33.8,76,29.62,10.0,WSW,10.4,-,N/A,,Scattered Clouds,250,2012-10-09 14:11:00
9:31 AM,42.8,33.8,70,29.63,10.0,WSW,10.4,16.1,N/A,,Clear,240,2012-10-09 14:31:00
9:51 AM,42.8,33.8,70,29.62,10.0,WSW,12.7,17.3,N/A,,Clear,250,2012-10-09 14:51:00
10:12 AM,42.8,32.0,66,29.63,10.0,West,11.5,-,N/A,,Clear,270,2012-10-09 15:12:00
10:31 AM,44.6,32.0,61,29.63,10.0,WSW,15.0,18.4,N/A,,Clear,250,2012-10-09 15:31:00
10:51 AM,44.6,32.0,61,29.63,10.0,WSW,16.1,24.2,N/A,,Scattered Clouds,250,2012-10-09 15:51:00
11:12 AM,42.8,30.2,61,29.63,10.0,West,10.4,17.3,N/A,,Scattered Clouds,260,2012-10-09 16:12:00
11:31 AM,46.4,30.2,53,29.63,10.0,West,13.8,20.7,N/A,,Scattered Clouds,260,2012-10-09 16:31:00
11:51 AM,46.4,30.2,53,29.62,10.0,WSW,12.7,20.7,N/A,,Mostly Cloudy,250,2012-10-09 16:51:00
12:12 PM,44.6,28.4,53,29.63,10.0,WSW,15.0,24.2,N/A,,Mostly Cloudy,250,2012-10-09 17:12:00
12:31 PM,44.6,30.2,57,29.63,10.0,West,10.4,16.1,N/A,,Overcast,280,2012-10-09 17:31:00
12:51 PM,44.6,28.4,53,29.63,10.0,WSW,15.0,19.6,N/A,,Overcast,250,2012-10-09 17:51:00
1:11 PM,44.6,28.4,53,29.63,10.0,WSW,17.3,27.6,N/A,,Overcast,250,2012-10-09 18:11:00
1:31 PM,44.6,28.4,53,29.63,10.0,West,15.0,21.9,N/A,,Overcast,260,2012-10-09 18:31:00
1:52 PM,44.6,28.4,53,29.63,10.0,West,11.5,20.7,N/A,,Overcast,270,2012-10-09 18:52:00
2:11 PM,42.8,28.4,57,29.64,10.0,West,10.4,19.6,N/A,,Overcast,260,2012-10-09 19:11:00
2:31 PM,42.8,30.2,61,29.64,10.0,West,18.4,24.2,N/A,,Overcast,260,2012-10-09 19:31:00
2:52 PM,42.8,30.2,61,29.64,10.0,West,10.4,18.4,N/A,,Overcast,260,2012-10-09 19:52:00
3:11 PM,42.8,30.2,61,29.64,10.0,WSW,13.8,23.0,N/A,,Overcast,250,2012-10-09 20:11:00
3:31 PM,42.8,30.2,61,29.65,10.0,West,11.5,20.7,N/A,,Mostly Cloudy,270,2012-10-09 20:31:00
3:52 PM,44.6,30.2,57,29.65,10.0,West,15.0,19.6,N/A,,Mostly Cloudy,260,2012-10-09 20:52:00
4:11 PM,42.8,33.8,70,29.66,7.0,West,18.4,28.8,N/A,,Light Drizzle,260,2012-10-09 21:11:00
4:31 PM,41.0,33.8,76,29.66,10.0,West,9.2,17.3,N/A,,Mostly Cloudy,260,2012-10-09 21:31:00
4:52 PM,42.8,30.2,61,29.67,10.0,West,8.1,18.4,N/A,,Scattered Clouds,280,2012-10-09 21:52:00
5:11 PM,39.2,32.0,75,29.68,7.0,NW,6.9,16.1,N/A,,Scattered Clouds,310,2012-10-09 22:11:00
5:52 PM,39.2,30.2,70,29.70,10.0,WNW,8.1,19.6,N/A,,Clear,290,2012-10-09 22:52:00
6:11 PM,37.4,30.2,75,29.70,10.0,West,9.2,17.3,N/A,,Mostly Cloudy,280,2012-10-09 23:11:00
6:31 PM,37.4,30.2,75,29.72,10.0,West,6.9,17.3,N/A,Rain,Light Rain,280,2012-10-09 23:31:00
6:51 PM,37.4,30.2,75,29.73,10.0,WNW,6.9,-,N/A,,Scattered Clouds,290,2012-10-09 23:51:00
7:11 PM,37.4,30.2,75,29.74,10.0,West,6.9,-,N/A,,Drizzle,280,2012-10-10 00:11:00
7:32 PM,35.6,28.4,75,29.76,10.0,WNW,5.8,-,N/A,,Mostly Cloudy,290,2012-10-10 00:32:00
7:51 PM,35.6,28.4,75,29.76,10.0,West,8.1,-,N/A,,Mostly Cloudy,280,2012-10-10 00:51:00
8:11 PM,35.6,28.4,75,29.76,10.0,WNW,9.2,20.7,N/A,,Scattered Clouds,290,2012-10-10 01:11:00
8:32 PM,35.6,28.4,75,29.77,10.0,WNW,10.4,18.4,N/A,,Scattered Clouds,300,2012-10-10 01:32:00
8:51 PM,35.6,26.6,70,29.78,10.0,WNW,11.5,17.3,N/A,,Clear,300,2012-10-10 01:51:00
9:12 PM,33.8,26.6,75,29.79,10.0,WNW,8.1,19.6,N/A,,Clear,300,2012-10-10 02:12:00
9:31 PM,33.8,26.6,75,29.79,10.0,WNW,10.4,19.6,N/A,,Scattered Clouds,290,2012-10-10 02:31:00
9:51 PM,33.8,26.6,75,29.79,10.0,WNW,10.4,19.6,N/A,,Clear,300,2012-10-10 02:51:00
10:12 PM,33.8,26.6,75,29.79,10.0,WNW,11.5,21.9,N/A,,Clear,300,2012-10-10 03:12:00
10:31 PM,33.8,24.8,70,29.80,10.0,WNW,6.9,-,N/A,,Clear,300,2012-10-10 03:31:00
10:51 PM,33.8,24.8,70,29.81,10.0,WNW,8.1,17.3,N/A,,Clear,300,2012-10-10 03:51:00
11:12 PM,33.8,24.8,70,29.82,10.0,WNW,8.1,-,N/A,,Clear,300,2012-10-10 04:12:00
11:31 PM,32.0,24.8,75,29.82,10.0,WNW,6.9,-,N/A,,Clear,290,2012-10-10 04:31:00
11:51 PM,32.0,24.8,75,29.83,10.0,WNW,3.5,-,N/A,,Clear,300,2012-10-10 04:51:00